Starlink 31908

operational
NORAD ID: 59901 Int'l Des: 2024-100 Owner: SPXS Country: US Constellation: starlink
LEOCIRCULAR

Starlink 31908について

説明を読み込み中...

リアルタイム位置

3D地球を読み込み中...

次回通過

高度履歴

Altitude vs Time

uPlot chart will show altitude changes over time

軌道要素

1 59901U 24100S 26095.33671505 .00001928 00000-0 79563-4 0 9997
2 59901 43.0051 327.8634 0000523 257.6611 102.4182 15.27572850105309
Epoch: Apr 5, 2026 • Age: 10 hours

現在のステータス

高度 485.7 km
速度 7.63 km/s
衛星直下点 39.33°N, 74.45°W
打ち上げ日 May 28, 2024
運用期間 1.8 years
タイプ internet

技術仕様

分類 Payload
質量 730.00 kg
乾燥質量 700.00 kg
総質量 730.00 kg
長さ 0.30 m
直径 4.10 m
スパン 29.00 m
形状 Box + pan
製造者 SPXS
バスタイプ Starlink V2M
フェーズステータス In Orbit
所有者/国 SPXS/US

大規模コンステレーション

Loading constellations...